CDT,Max TemperatureF,Mean TemperatureF,Min TemperatureF,Max Dew PointF,MeanDew PointF,Min DewpointF,Max Humidity, Mean Humidity, Min Humidity, Max Sea Level PressureIn, Mean Sea Level PressureIn, Min Sea Level PressureIn, Max VisibilityMiles, Mean VisibilityMiles, Min VisibilityMiles, Max Wind SpeedMPH, Mean Wind SpeedMPH, Max Gust SpeedMPH,PrecipitationIn, CloudCover, Events, WindDirDegrees
2013-7-1,82,72,63,56,52,49,72,50,33,30.10,30.06,30.03,10,10,9,18,8,26,0.00,1,,8
2013-7-2,84,72,62,61,54,49,75,54,31,30.12,30.07,30.03,10,9,2,18,4,24,0.11,2,Rain-Thunderstorm,2
2013-7-3,87,75,64,59,56,51,78,59,31,30.06,30.03,29.98,10,10,8,18,5,25,0.07,2,Rain-Thunderstorm,217
2013-7-4,87,74,63,61,56,53,78,52,32,30.04,29.99,29.93,10,10,9,12,5,16,0.00,0,,170
2013-7-5,90,79,69,63,59,57,68,50,35,29.99,29.94,29.88,10,10,10,15,9,24,0.00,0,,173
2013-7-6,91,80,71,64,62,59,68,53,42,29.96,29.91,29.88,10,10,10,18,11,28,0.00,1,,184
2013-7-7,91,83,75,68,66,63,76,56,41,29.95,29.92,29.89,10,10,8,18,9,25,0.09,2,Rain,195
2013-7-8,95,86,79,70,66,63,60,52,43,30.00,29.96,29.94,10,10,10,14,10,21,0.00,0,,197
2013-7-9,99,90,82,74,70,67,67,54,39,29.98,29.90,29.82,10,10,10,17,11,26,0.00,0,,198
2013-7-10,91,84,77,71,65,59,65,52,33,30.01,29.95,29.87,10,10,10,13,8,21,0.00,1,,6
2013-7-11,87,78,70,61,58,55,71,51,37,30.07,30.02,29.96,10,10,10,13,8,20,0.00,0,,83
2013-7-12,89,79,70,64,60,56,68,50,40,30.05,30.00,29.95,10,10,10,14,8,20,0.00,0,,123
2013-7-13,90,80,73,66,61,57,57,53,48,30.02,29.98,29.94,10,10,10,15,7,21,0.00,0,,131
2013-7-14,88,76,66,62,60,56,81,54,36,30.09,30.03,29.99,10,10,10,14,7,22,0.00,1,,100
2013-7-15,89,80,71,68,66,63,79,61,48,30.17,30.12,30.08,10,10,8,13,6,17,0.00,2,,99
2013-7-16,93,84,75,70,68,65,79,58,39,30.24,30.19,30.16,10,10,10,10,5,,0.00,2,,147
2013-7-17,93,84,77,71,69,66,74,56,42,30.29,30.24,30.16,10,10,10,9,5,,0.00,1,Thunderstorm,173
2013-7-18,96,87,78,70,67,63,76,52,35,30.18,30.08,29.96,10,10,10,10,5,17,0.00,1,,216
2013-7-19,97,88,78,67,65,62,64,47,33,29.97,29.91,29.82,10,10,10,13,7,22,0.00,1,,241
2013-7-20,87,82,77,71,69,66,74,65,53,29.91,29.88,29.84,10,10,10,13,3,,0.00,1,,35
2013-7-21,89,80,73,72,68,66,79,68,48,29.92,29.86,29.78,10,10,10,9,5,,0.00,4,,222
2013-7-22,96,84,73,72,69,64,87,63,43,29.84,29.78,29.74,10,10,10,15,4,23,0.00,2,,213
2013-7-23,87,81,73,72,67,59,79,65,51,29.92,29.85,29.78,10,10,10,17,6,22,0.00,1,,45
2013-7-24,88,76,66,59,58,56,73,53,36,30.03,29.99,29.94,10,10,10,13,9,,0.00,0,,46
2013-7-25,87,78,71,69,63,58,85,64,43,30.08,30.04,29.98,10,10,8,8,4,,0.15,3,Rain,176
2013-7-26,88,79,69,70,63,49,87,64,34,30.05,30.00,29.96,10,10,10,14,5,21,0.05,4,Rain,327
2013-7-27,79,70,61,55,51,45,75,53,33,30.11,30.04,29.98,10,10,10,10,5,17,0.00,1,,336
2013-7-28,80,68,59,54,50,45,80,52,32,30.05,30.03,30.01,10,10,10,8,2,,0.00,3,,270
2013-7-29,71,67,63,68,64,54,90,83,57,30.09,30.03,29.98,10,8,1,15,6,,0.77,7,Rain,95
2013-7-30,82,76,71,73,71,68,94,83,69,30.06,29.99,29.96,10,8,1,8,4,,0.19,8,Rain,37
2013-7-31,84,78,71,70,67,64,88,73,51,30.11,30.06,30.01,10,10,10,9,4,,0.00,4,,18